Theta_e
323 322 322 323 324 326 327 326 332 336 334 335 337 337 335 333 334 336 336 334 334 333 332 332 332 332 333 333 333 333 333 335 335 334 337 334 333 333 330 329 330 330 330 327 325 326 327 329 331 332 332 332 333 334 333 332 331 330 328 322 313 307 303 302 302 302 302 302 303 302 304 313 315 314 313 311 313 313 312 312 311 311 314 315 315 317 319 317 315 314 314 315 316 316 316 316 314
322 322 321 322 324 326 327 328 335 340 338 336 337 338 336 336 336 336 335 334 333 332 332 332 331 332 332 332 331 332 332 333 332 332 333 333 332 331 330 330 330 330 330 330 330 328 328 331 332 332 332 333 333 333 332 331 330 326 320 311 305 303 302 302 302 301 302 302 301 302 302 306 309 311 312 311 313 316 315 315 315 315 318 319 318 319 320 319 319 319 318 318 319 319 320 320 319
322 322 321 322 323 324 328 329 336 339 337 337 340 338 334 337 337 334 333 333 332 332 333 331 331 332 332 332 331 332 333 332 332 333 333 333 332 331 331 329 328 330 331 331 331 330 330 331 331 331 332 332 332 332 330 328 324 317 310 304 302 302 302 302 304 306 309 308 302 304 308 310 312 313 313 316 318 319 317 316 318 318 319 319 319 320 320 321 321 321 321 319 319 320 320 320 320
322 322 321 323 322 325 334 334 340 340 336 338 338 335 335 336 335 333 333 332 332 333 332 331 331 331 331 332 331 332 332 332 333 333 333 332 332 332 330 327 329 331 331 331 330 330 330 331 331 331 331 331 330 329 325 320 314 309 305 303 302 303 307 305 306 313 317 316 310 308 311 313 314 316 316 318 321 321 318 317 318 319 319 320 319 320 320 321 320 321 322 320 320 320 319 319 320
322 322 321 322 322 325 337 336 338 337 335 341 338 335 337 335 335 335 333 331 331 332 332 331 331 330 331 331 331 331 331 332 333 332 333 332 331 330 328 329 331 332 331 331 330 330 330 331 332 330 330 328 326 322 317 312 308 306 303 304 308 311 315 312 310 315 319 320 317 313 312 315 316 318 319 319 320 320 320 319 318 318 319 320 320 321 321 321 322 322 322 321 321 319 317 317 320
321 322 321 322 322 323 332 332 335 340 336 340 340 336 336 335 335 334 332 331 330 331 331 331 331 331 331 331 331 331 331 332 332 332 331 331 329 329 329 331 332 332 331 330 330 330 330 331 330 329 327 325 322 318 312 308 306 306 304 311 318 317 317 318 317 318 319 320 319 317 314 315 317 319 319 320 320 319 319 319 318 318 319 321 322 323 322 323 324 322 321 320 320 320 319 318 318
321 322 322 323 325 328 336 335 338 344 336 335 338 335 336 334 332 332 333 332 331 330 330 331 331 331 331 331 331 331 331 331 331 330 330 329 330 331 331 332 332 331 330 330 330 329 330 330 328 326 325 322 319 314 309 308 308 309 308 316 322 319 316 319 320 320 321 321 320 320 317 316 319 319 319 320 321 321 320 320 319 320 321 322 323 324 323 323 323 321 320 318 319 321 321 320 319
320 321 322 328 334 337 344 341 341 341 334 333 335 334 335 334 331 333 333 332 332 330 330 331 330 332 331 330 331 331 331 331 330 330 330 331 331 331 331 331 331 330 330 329 329 328 329 328 326 325 322 319 315 311 311 311 312 313 314 318 321 321 318 318 321 321 321 321 321 322 319 318 321 322 321 321 323 323 322 322 322 322 323 323 323 324 323 323 322 320 318 317 318 319 319 320 320
320 321 321 330 338 338 342 342 338 336 335 335 334 334 333 333 332 333 333 332 332 331 331 331 330 332 331 330 331 331 331 331 331 331 331 331 330 327 325 326 327 328 328 328 328 327 327 327 325 324 319 315 312 312 315 315 316 317 318 319 319 322 321 318 320 322 321 321 321 322 321 320 321 323 322 321 323 324 322 323 323 322 323 323 323 323 322 322 320 318 317 316 316 317 319 319 319
320 322 323 331 335 334 338 340 337 334 336 335 333 333 332 333 333 332 333 333 331 330 331 330 330 331 330 330 331 331 332 331 332 331 328 326 323 321 320 319 323 326 327 327 327 327 326 325 324 321 315 314 315 316 318 318 319 319 318 319 320 323 322 318 319 321 321 322 321 321 322 321 320 322 322 321 322 323 322 321 321 321 322 323 322 321 320 319 317 317 316 315 316 318 318 318 318
320 321 324 335 338 334 338 341 339 336 335 335 333 332 332 333 332 332 332 333 332 331 330 330 330 330 329 329 331 331 331 331 330 327 324 322 320 320 320 318 319 322 325 326 326 326 325 323 321 317 314 316 320 319 319 320 320 320 319 319 321 321 319 317 317 319 320 321 321 319 320 319 319 322 321 321 322 323 322 320 320 319 320 320 320 319 318 317 316 316 315 315 317 317 318 317 317
320 326 331 339 341 338 338 342 341 336 335 337 336 333 332 332 332 332 331 332 331 331 330 330 330 330 330 329 330 331 331 331 327 325 324 324 324 323 323 322 319 318 320 321 321 320 320 320 318 315 313 317 321 321 321 320 320 322 322 321 320 318 317 315 314 317 320 320 320 319 318 317 318 320 319 320 321 321 321 320 320 319 317 317 318 317 315 314 315 315 314 315 317 317 318 316 315
321 330 338 336 337 339 338 340 339 337 337 337 336 333 332 331 332 332 331 332 331 331 331 330 329 330 331 329 330 331 330 330 328 327 327 327 328 327 325 325 322 318 317 317 317 317 317 318 318 315 312 315 320 321 321 318 318 322 321 320 321 318 316 314 312 315 319 319 319 318 317 316 318 317 317 319 320 320 319 318 317 316 314 313 315 314 313 313 315 315 315 317 317 317 316 314 313
321 327 336 334 333 339 338 338 338 338 335 332 334 333 333 331 331 331 331 334 332 330 330 330 330 329 330 330 330 330 330 330 329 329 329 329 329 328 328 327 326 321 317 317 317 316 316 317 318 316 311 314 319 319 320 317 316 319 319 320 321 318 314 313 311 311 315 318 318 316 314 315 317 317 316 317 317 317 316 313 313 314 313 312 312 312 313 314 316 316 316 317 316 315 314 313 313
323 326 338 340 337 338 337 338 339 339 334 332 334 333 332 331 330 331 331 334 332 330 330 330 330 330 331 330 330 330 330 330 330 330 329 330 329 329 329 327 327 323 319 318 317 315 316 316 316 316 313 316 319 320 319 319 319 318 318 318 317 315 312 312 311 308 312 315 315 314 313 315 316 316 315 314 314 313 312 311 311 314 313 311 311 312 314 316 316 316 315 314 314 314 313 313 313
325 328 339 342 337 336 335 336 336 337 334 333 334 332 333 332 331 333 332 332 332 332 332 331 330 331 330 329 329 329 330 330 330 330 329 330 330 329 329 327 326 323 320 318 317 315 313 314 315 315 314 316 320 320 320 319 319 318 317 314 311 311 312 312 310 307 308 310 311 312 313 315 315 314 313 313 312 309 310 311 311 312 312 311 312 313 314 314 314 313 313 313 313 313 314 314 313
326 332 342 341 336 337 336 335 336 338 336 334 333 331 334 334 333 333 332 332 332 333 333 332 330 329 328 328 329 328 328 329 329 329 329 330 330 330 329 327 326 324 320 318 317 315 310 311 313 313 315 318 320 320 320 320 319 318 316 312 309 312 314 312 309 308 307 307 309 311 312 313 313 314 313 312 310 308 310 312 310 311 312 312 313 313 313 313 313 313 313 313 313 313 313 313 313
332 343 342 335 336 338 337 336 333 335 335 334 333 331 333 335 334 332 333 332 332 332 331 331 330 328 329 328 327 325 324 323 323 324 326 327 328 329 329 328 327 323 320 318 316 314 310 310 312 313 318 320 320 321 320 320 320 319 316 312 311 313 314 312 310 308 307 308 308 309 312 313 313 314 312 311 309 308 308 310 310 310 312 313 313 313 313 313 313 313 313 313 313 313 313 313 314
335 343 340 335 338 335 332 333 329 332 335 333 332 332 333 334 333 333 333 332 331 332 331 330 330 329 329 327 324 322 320 319 320 320 322 324 326 327 329 329 326 322 319 317 315 314 311 309 312 316 319 320 319 320 320 320 320 318 316 313 313 314 314 312 311 309 307 308 309 310 312 313 314 313 311 310 308 308 308 308 309 310 311 312 313 313 313 313 313 313 313 313 313 313 313 314 314
330 339 345 339 336 333 329 330 329 331 333 332 332 332 333 333 333 333 332 331 332 332 330 329 329 329 327 324 320 317 313 312 314 318 320 322 325 327 329 327 323 321 318 316 315 313 311 308 312 318 320 321 321 320 320 320 319 317 316 313 314 315 313 313 311 310 308 308 309 310 312 312 312 312 310 309 308 308 307 308 309 310 311 312 312 313 312 312 311 312 312 311 311 311 312 313 312
328 337 346 336 331 335 331 329 330 331 332 333 332 332 333 333 333 332 331 336 337 332 329 328 329 328 325 320 316 315 314 311 310 315 318 320 325 328 328 323 320 319 316 316 315 313 311 307 312 319 321 321 321 321 320 319 317 316 315 314 316 315 313 313 312 311 308 307 309 310 311 312 311 311 310 309 309 308 307 307 309 310 311 312 313 312 311 310 310 310 310 310 310 310 310 311 311
332 333 335 331 331 336 332 330 332 332 333 332 331 333 334 332 333 331 330 336 336 331 329 327 327 326 322 319 318 319 321 319 314 312 315 319 323 325 323 320 318 317 316 315 313 312 310 307 311 318 320 320 320 319 319 317 314 315 315 315 316 315 314 314 313 311 308 307 308 309 310 311 311 311 309 309 309 308 307 308 309 311 312 312 312 310 310 309 309 309 309 309 309 309 309 310 310
337 333 329 330 332 334 332 331 333 332 333 332 331 333 332 332 333 331 330 331 329 327 327 324 323 322 320 322 322 322 323 323 320 315 312 315 319 320 318 317 317 316 315 313 310 311 309 306 310 317 319 319 318 317 317 317 314 315 316 315 315 314 314 314 313 311 308 307 308 309 309 309 310 310 309 309 309 308 307 308 310 311 311 311 310 309 309 309 309 309 309 308 308 309 309 309 310
338 336 330 331 331 332 332 332 333 333 332 331 332 333 331 334 335 332 331 328 321 320 321 320 321 322 322 324 323 322 324 324 322 319 314 312 314 316 316 316 315 313 310 309 308 308 307 306 311 315 318 318 317 316 317 317 315 316 316 315 314 315 315 314 314 312 308 307 308 308 309 309 309 309 309 309 309 308 307 308 310 311 311 310 309 309 309 309 309 309 309 310 309 309 309 310 310
336 335 330 331 331 331 332 333 333 332 332 332 332 332 331 333 334 332 332 327 318 317 319 321 323 323 324 324 324 324 324 325 323 321 318 314 311 311 314 314 313 310 307 308 307 306 306 308 311 314 317 317 317 316 316 316 316 317 316 314 314 315 315 314 314 312 308 308 309 308 308 308 309 309 310 310 310 309 308 308 310 310 311 310 309 309 309 309 309 310 310 310 310 310 310 310 310
332 332 330 331 331 331 332 333 333 332 332 332 332 333 331 331 332 331 331 326 321 320 320 323 325 325 325 325 326 326 325 326 324 322 321 319 313 308 309 311 309 308 308 309 308 305 307 309 310 313 315 316 316 316 317 317 317 317 316 315 315 315 315 314 314 310 307 308 309 309 309 308 309 309 310 310 310 309 309 309 309 310 310 310 310 309 309 310 310 310 310 310 311 311 310 310 311
330 330 330 331 331 331 332 332 331 332 331 331 334 335 332 330 331 332 331 327 324 322 322 324 325 325 326 326 326 327 326 326 325 324 322 321 318 311 307 309 308 308 309 308 307 305 307 309 309 311 312 313 313 314 316 316 316 316 315 314 315 315 314 313 312 309 307 309 309 309 309 308 309 309 310 310 310 309 309 309 309 309 310 310 310 310 310 310 309 308 308 309 310 311 311 311 311
330 331 331 330 331 331 331 331 330 331 331 330 333 334 331 329 332 333 330 328 326 323 324 324 326 326 326 327 327 327 327 327 326 325 324 322 322 314 307 308 308 309 309 308 307 305 306 308 309 309 308 308 308 310 312 312 313 314 314 315 316 315 313 312 311 308 307 309 310 310 309 309 309 309 310 310 309 309 309 309 309 309 310 310 310 309 309 308 307 306 306 307 307 309 310 311 311
330 332 334 333 334 333 330 331 330 331 332 331 332 334 335 335 332 332 329 328 326 324 326 326 326 327 327 327 327 327 327 327 327 326 325 324 324 318 309 308 308 308 308 307 306 304 305 307 307 307 307 308 308 307 308 308 311 313 313 315 315 314 314 312 310 308 308 310 310 311 309 309 309 310 310 309 309 308 308 308 309 310 310 310 309 308 307 307 307 307 307 307 306 306 308 310 311
332 331 335 337 338 338 331 330 331 329 331 331 331 335 343 341 332 330 329 327 326 326 327 327 327 327 327 327 327 327 327 327 327 326 325 324 325 321 312 309 308 306 306 305 305 303 304 306 307 308 310 312 312 310 308 309 311 313 314 315 314 315 314 311 309 308 308 310 311 311 310 309 310 310 310 310 309 308 308 308 309 309 309 309 308 307 308 308 308 308 308 308 308 306 306 309 311
337 332 334 337 337 340 334 329 330 330 331 331 331 336 346 345 333 329 329 327 327 327 327 327 328 328 328 328 327 328 327 327 328 326 326 325 326 323 315 311 308 306 305 304 303 303 303 305 306 309 311 313 314 313 311 311 312 313 314 314 314 315 312 309 308 308 309 310 311 312 311 310 310 310 310 310 310 309 308 308 308 308 308 308 308 308 308 308 308 308 308 308 308 307 306 307 310
341 336 337 336 333 339 336 328 329 333 332 330 332 339 345 341 331 329 329 328 327 327 327 328 328 328 329 329 328 328 327 328 328 327 326 325 326 325 319 314 308 304 303 303 302 303 303 303 305 308 309 310 313 314 314 314 314 314 314 314 315 315 311 309 310 310 310 311 311 312 312 312 310 310 310 310 310 310 308 308 308 308 308 309 309 309 309 309 308 308 308 308 308 308 306 306 308
339 337 338 336 333 336 336 330 328 331 333 331 331 337 341 335 328 329 330 328 328 327 327 328 329 329 329 329 329 329 328 328 328 327 326 326 326 325 323 316 308 303 302 302 302 303 303 303 304 306 307 308 312 315 315 315 315 314 315 315 315 315 312 311 311 311 312 311 311 312 312 312 311 310 310 310 311 310 309 308 308 308 309 309 310 310 310 310 309 308 308 308 308 309 307 306 307
336 335 336 335 335 336 338 336 328 328 335 336 332 333 337 334 329 330 330 329 328 328 328 328 328 329 329 330 330 330 329 328 328 328 327 327 327 326 325 317 308 303 302 302 302 303 303 303 303 304 306 308 311 316 317 316 315 315 316 315 316 315 312 312 312 312 312 312 312 312 312 312 312 311 310 310 310 310 309 309 308 308 309 310 310 310 310 309 309 309 308 308 308 309 308 307 307
336 336 336 334 333 333 337 337 331 331 335 337 335 334 336 334 330 331 330 330 330 329 329 329 329 329 329 330 330 330 330 330 329 329 328 327 327 327 326 318 310 306 302 302 302 303 303 302 303 303 305 307 310 315 317 317 316 316 316 316 316 314 312 313 313 312 313 313 313 312 313 312 312 312 311 311 310 309 309 309 308 308 309 310 310 309 309 309 309 309 309 308 308 309 309 308 308
338 339 341 340 335 333 335 334 330 330 333 336 336 337 338 334 332 333 331 330 331 330 330 329 329 330 330 330 330 330 331 330 330 329 328 327 327 328 327 319 314 309 303 302 303 302 303 302 302 302 303 304 306 311 315 317 317 316 316 316 316 314 313 313 313 312 312 313 313 313 313 313 312 312 311 311 311 311 311 310 309 309 309 310 309 309 309 310 310 309 309 309 309 309 309 309 309
337 337 339 339 335 335 334 330 327 329 333 336 333 334 336 333 333 333 330 331 331 330 330 330 330 330 330 331 330 330 330 330 330 329 328 328 327 328 328 321 317 314 305 302 303 302 302 302 302 302 302 302 302 305 310 315 317 317 317 316 315 314 313 313 313 312 312 313 313 313 313 313 313 312 312 311 311 311 312 311 310 309 310 310 309 309 309 310 310 310 309 309 309 309 310 309 309
339 339 336 334 335 336 332 328 328 328 332 337 332 331 333 331 332 330 329 333 332 330 330 330 330 330 330 331 331 331 331 330 330 329 328 328 327 328 329 324 320 317 309 303 303 302 302 302 302 302 302 301 302 302 306 312 316 317 317 316 315 314 313 313 314 313 313 313 313 313 313 313 313 313 312 312 311 311 311 312 311 310 310 310 309 309 310 310 310 310 310 310 309 309 309 309 309
342 339 334 335 337 334 330 328 328 328 332 337 334 333 334 333 334 332 329 332 332 330 331 330 330 331 331 331 332 332 331 331 330 329 328 328 328 329 329 326 321 320 316 309 303 302 302 302 302 302 302 301 301 302 304 310 314 316 316 316 315 314 314 314 314 314 313 313 313 313 313 313 313 313 313 312 312 311 311 312 312 311 311 311 310 310 310 310 310 311 310 310 310 309 309 309 309
341 339 336 338 336 333 333 329 327 328 329 333 335 335 339 338 335 333 329 329 331 331 331 331 331 331 331 331 332 332 332 332 331 330 329 328 329 329 330 328 323 321 320 315 307 302 302 302 302 302 302 301 302 302 304 308 312 314 315 315 315 314 314 315 314 314 314 313 313 313 313 313 313 312 312 312 312 311 311 311 312 311 311 311 312 312 311 311 311 311 310 310 310 310 310 309 309
339 339 340 341 337 335 335 330 330 331 328 333 337 336 344 344 337 335 330 327 330 331 330 331 331 332 332 332 332 332 332 332 332 331 330 330 330 330 330 328 323 321 321 320 313 304 302 302 302 302 302 301 302 302 303 306 309 312 313 313 314 314 314 313 313 314 314 313 313 314 313 313 313 312 312 312 312 311 311 311 311 311 312 312 313 312 312 312 311 311 310 310 310 310 310 309 309
337 336 339 342 339 334 331 331 335 335 331 332 332 332 344 347 340 339 334 330 331 329 328 330 330 331 331 331 332 331 332 332 332 332 331 331 331 330 330 328 324 322 322 323 319 308 302 302 302 302 302 301 301 302 302 304 306 308 310 312 313 314 314 312 312 313 313 313 314 314 314 314 313 312 312 312 312 311 311 311 311 311 312 313 313 312 312 312 311 310 310 310 310 310 310 309 309
335 330 335 338 338 335 331 333 337 336 331 328 332 335 339 343 344 341 336 335 335 330 328 328 328 330 330 330 331 331 331 331 331 332 331 331 331 330 330 329 324 322 322 324 323 313 303 302 303 302 302 302 301 301 302 303 305 306 308 310 312 313 312 312 311 311 313 314 314 313 313 313 313 313 312 312 312 312 311 311 311 311 312 313 312 311 312 312 311 310 310 311 310 310 310 309 309
332 329 338 339 339 338 332 336 340 339 332 329 337 338 330 336 344 338 333 336 339 336 333 328 325 327 330 329 331 330 330 331 330 331 331 331 332 331 330 329 324 323 323 324 325 319 307 302 302 302 302 302 301 301 301 302 303 304 306 308 310 311 311 312 311 312 313 314 314 313 313 313 313 313 313 313 313 312 311 310 311 312 312 312 312 312 312 311 311 310 310 311 310 310 310 310 309
330 329 338 338 338 339 336 339 344 340 331 329 336 332 326 337 345 338 332 334 339 340 340 334 324 325 328 328 330 330 329 330 330 331 331 331 331 331 330 329 325 323 324 324 325 324 315 305 302 302 302 302 302 301 301 302 302 303 305 307 309 310 311 311 311 312 313 314 314 314 313 313 313 313 313 313 313 312 312 310 310 312 312 312 312 312 311 311 310 310 310 311 310 310 310 310 310
328 327 332 332 333 338 339 341 344 340 333 332 334 329 326 336 346 341 330 330 341 344 344 337 324 322 327 327 328 329 328 330 330 330 331 331 331 331 330 329 327 323 323 325 325 325 322 311 302 302 302 301 302 302 301 302 302 303 304 306 308 309 310 311 311 312 313 314 314 314 314 314 313 313 313 313 313 312 311 309 310 312 312 312 312 312 311 310 310 310 310 310 310 310 310 310 310
327 333 335 333 337 343 344 345 344 338 337 336 334 332 328 332 343 343 330 329 339 341 343 341 328 323 325 326 327 328 328 330 330 330 331 331 331 331 330 329 328 325 324 325 325 325 324 315 305 302 302 302 301 301 302 301 302 302 304 306 307 308 309 310 310 311 312 314 314 314 313 313 312 312 312 312 312 311 309 309 311 312 312 312 312 311 311 310 309 309 309 309 310 310 310 310 310
332 343 340 333 337 340 340 343 340 335 336 336 336 335 328 329 340 340 334 336 339 337 338 342 335 327 325 326 327 327 328 329 329 330 330 331 331 331 331 329 328 327 324 324 325 325 325 320 312 305 302 302 301 301 301 301 301 302 303 305 306 307 309 309 310 311 312 313 313 313 313 312 311 310 310 311 310 310 310 310 311 311 312 312 311 311 311 310 309 308 309 309 310 310 310 310 309
334 339 339 336 337 335 334 338 336 332 332 331 334 333 327 334 339 334 337 340 337 333 330 332 331 326 327 327 327 327 329 329 329 330 330 330 331 331 331 329 329 328 325 324 325 325 324 323 319 311 303 301 302 301 301 301 301 301 302 303 304 305 307 307 309 310 311 312 312 312 311 310 309 308 309 309 310 310 311 311 311 311 311 311 311 311 310 309 308 308 309 309 309 310 310 310 309
333 333 337 338 338 334 332 334 331 328 332 330 330 331 330 336 337 335 342 335 327 326 325 326 326 325 328 328 327 328 328 328 329 329 330 330 331 331 330 329 328 328 326 325 325 326 325 324 323 317 308 302 302 302 302 301 301 301 301 302 302 303 304 304 306 308 309 310 310 310 309 308 308 308 309 309 310 310 311 311 311 311 311 311 311 310 310 309 308 308 309 309 309 309 309 309 309
333 335 335 333 338 336 330 334 332 330 334 333 328 328 332 335 332 334 335 326 323 325 325 327 326 326 328 326 327 328 327 328 329 329 330 330 331 331 330 329 328 328 327 325 325 325 325 324 324 322 313 305 302 302 302 301 301 301 301 302 302 303 303 303 304 305 307 307 308 308 307 307 308 308 309 310 310 310 310 311 311 310 310 310 310 310 309 309 308 308 309 308 309 309 309 309 308
330 331 330 328 336 339 330 330 335 333 332 332 329 329 335 336 330 332 329 323 325 325 324 327 326 327 328 326 327 327 327 329 328 329 330 330 331 331 330 329 328 328 327 326 325 325 326 325 324 324 319 309 302 302 302 302 302 301 301 302 302 302 302 302 303 304 305 306 307 308 307 307 308 308 310 310 310 310 310 310 310 310 309 309 308 308 307 307 308 308 308 308 309 309 309 309 308
330 327 330 330 330 338 335 326 329 332 330 331 330 330 339 336 326 332 336 330 329 327 325 326 325 327 327 327 328 327 327 328 328 329 329 330 332 331 330 330 328 328 327 326 326 325 325 325 324 324 322 314 305 302 302 302 302 302 302 302 302 303 302 302 303 304 305 306 307 307 307 307 308 308 309 310 310 310 310 310 310 310 309 307 304 303 303 305 308 309 307 307 309 309 309 309 308
333 331 333 329 323 331 338 332 333 333 329 335 334 329 338 336 327 335 337 329 333 336 331 325 324 327 326 327 328 327 328 328 328 330 329 330 332 330 330 330 328 329 327 326 326 326 326 326 325 325 324 319 310 303 302 302 302 302 302 302 302 303 302 302 302 303 304 305 306 306 306 306 307 308 309 309 309 310 309 309 309 308 307 304 301 300 302 305 308 308 307 307 308 309 308 308 308
329 332 328 326 326 330 330 330 335 332 326 334 336 330 334 335 336 342 335 332 339 338 335 333 329 327 326 327 328 326 328 328 328 330 329 330 331 331 330 330 329 329 328 328 326 326 327 326 326 325 325 322 314 305 302 301 302 302 302 302 302 303 302 301 301 302 302 303 304 305 306 305 305 306 307 308 308 308 308 307 307 307 305 301 299 300 302 305 308 308 306 307 308 308 308 308 308
322 325 322 326 337 336 329 326 331 331 327 330 333 332 335 338 343 347 337 340 345 338 339 341 330 326 327 327 327 327 327 328 328 329 329 330 330 331 330 329 330 329 328 329 327 326 327 326 326 326 325 324 318 308 302 302 302 302 301 301 302 302 303 302 301 301 301 302 303 304 305 305 304 305 306 306 306 307 306 306 306 305 303 298 298 300 302 304 307 306 305 306 307 307 307 308 307
323 327 324 325 329 327 327 325 324 330 333 333 331 331 341 343 339 341 338 341 346 341 341 337 326 325 328 327 327 327 327 328 328 328 328 329 330 330 330 329 329 329 329 329 328 327 327 327 328 327 326 325 321 312 304 302 302 302 301 301 301 302 302 302 302 301 301 302 302 303 304 304 304 304 304 305 306 306 306 306 306 304 300 296 297 299 301 303 304 304 305 306 306 306 307 307 306
327 331 328 328 328 327 328 324 323 329 331 334 331 327 340 345 333 334 338 336 336 332 331 329 324 324 327 327 327 327 328 328 327 328 328 329 329 329 329 330 329 329 330 330 330 329 328 329 329 328 327 325 322 315 307 302 302 302 301 301 301 302 302 302 302 302 301 301 301 301 302 303 304 304 304 305 306 306 305 305 306 303 299 296 296 298 300 301 302 303 305 305 305 306 306 305 304
Wind_Speed
3 2 1 0 1 1 0 0 1 2 2 1 2 1 2 1 2 1 3 2 0 1 2 2 2 2 3 1 2 3 3 1 2 2 3 4 8 8 7 6 5 5 5 5 4 4 4 3 4 4 5 6 6 5 4 6 10 15 19 22 23 21 18 15 13 12 11 11 13 13 12 11 10 10 10 11 11 12 11 10 11 8 5 6 6 5 5 6 6 7 8 8 8 8 8 9 9
2 1 1 1 2 1 1 1 1 2 4 2 3 2 3 2 3 2 2 1 0 1 2 1 1 2 3 2 2 2 2 2 3 4 6 8 9 9 8 6 6 6 5 5 4 5 5 4 5 6 6 6 5 4 6 10 14 18 21 22 20 16 13 12 11 11 11 12 13 13 13 14 14 14 12 12 13 13 13 14 14 12 9 8 8 7 7 8 8 10 11 10 9 9 9 10 11
1 1 1 1 1 0 2 2 1 1 2 2 4 2 1 2 1 1 1 1 3 4 2 1 3 2 2 2 1 1 0 3 4 5 8 9 8 8 7 7 6 5 5 5 6 5 5 5 6 6 6 5 4 6 11 15 17 19 20 18 14 12 12 11 11 11 11 12 13 13 14 15 15 15 13 11 12 12 13 15 14 12 10 8 8 7 7 7 7 9 10 10 10 9 10 11 12
1 1 1 1 1 1 3 3 1 3 1 2 3 3 1 1 1 1 2 3 4 3 0 2 2 1 2 2 2 1 1 3 5 7 8 7 7 8 7 6 5 4 4 6 6 6 6 5 6 6 5 5 7 10 14 16 17 17 16 14 12 12 11 12 12 11 11 11 13 14 13 15 15 16 16 14 12 11 12 14 13 11 9 9 8 8 8 8 8 9 9 10 10 11 11 11 12
3 3 2 3 1 0 3 2 2 3 2 3 1 3 1 1 1 0 3 5 5 2 2 2 1 2 4 4 2 1 1 3 6 7 7 6 6 7 6 5 5 5 5 6 6 6 5 5 5 5 5 7 10 13 14 15 15 14 13 12 12 13 12 12 12 11 10 10 11 13 12 14 16 17 18 17 15 13 13 13 13 11 10 10 9 9 10 10 10 10 9 9 10 12 12 12 12
4 2 2 2 1 2 3 1 1 1 3 2 2 2 2 2 1 2 3 5 6 4 3 3 1 2 4 4 3 2 2 3 6 7 7 7 5 5 5 5 6 6 6 5 5 6 5 4 4 5 7 10 12 13 13 13 13 12 12 12 12 13 13 11 11 12 11 10 9 11 12 11 15 16 16 17 16 15 14 13 13 11 12 11 9 10 11 9 10 10 8 8 10 12 12 12 13
4 2 2 4 2 2 3 2 3 2 2 1 3 2 3 2 1 2 2 1 5 5 3 4 3 4 2 2 3 1 3 6 7 7 7 6 5 5 6 6 6 6 4 5 5 5 5 4 5 7 10 11 12 12 12 11 12 12 12 11 12 14 16 13 11 12 11 12 10 10 12 10 11 13 13 15 17 16 13 12 13 12 11 11 10 10 10 8 8 9 8 9 9 11 12 11 12
4 3 2 3 2 3 3 2 3 2 1 1 3 2 2 1 2 2 1 0 2 3 3 4 3 3 2 3 3 2 7 10 8 8 7 6 7 7 7 6 6 5 4 5 4 4 3 5 7 9 11 12 11 10 11 12 13 14 13 11 11 12 15 15 12 12 10 12 11 10 13 11 11 12 12 12 14 15 13 11 12 11 11 10 9 9 8 7 8 9 10 12 10 10 11 9 10
5 4 1 2 2 2 1 1 2 1 1 1 1 1 1 1 3 2 2 2 3 3 1 2 1 3 3 5 4 5 10 10 9 9 8 8 8 8 8 7 6 5 5 4 3 3 3 6 8 10 13 11 10 9 11 13 13 15 15 12 12 11 14 14 12 11 10 9 9 10 12 11 10 10 9 10 12 13 11 11 9 9 9 9 8 7 7 8 11 12 13 14 12 10 9 8 9
4 4 2 2 1 1 2 2 1 1 1 1 1 1 2 1 3 3 4 3 3 4 4 5 6 6 6 4 3 7 9 9 9 9 8 9 9 10 10 9 7 5 4 3 3 4 4 6 8 11 11 10 10 10 11 12 13 14 15 14 13 12 12 13 11 9 9 7 7 8 8 7 7 8 8 9 10 9 7 8 8 7 7 7 7 8 9 12 14 14 13 13 12 9 8 8 9
2 2 2 3 2 1 3 2 2 2 2 1 0 1 1 4 6 5 5 4 3 4 5 6 6 7 6 2 3 7 9 9 9 8 8 9 9 9 10 10 8 5 3 3 4 5 7 8 9 10 9 9 10 9 10 9 11 13 14 14 12 11 11 13 12 10 9 8 7 7 6 5 6 6 7 9 8 6 7 8 9 8 7 7 9 11 13 15 16 14 13 11 9 8 9 9 7
2 1 3 3 2 2 3 2 1 2 1 1 1 1 4 6 6 5 5 5 3 4 3 3 4 6 3 2 4 6 8 8 8 8 7 7 7 7 8 10 9 7 5 4 6 8 10 10 10 10 7 6 8 9 8 8 9 10 13 13 11 11 11 13 13 11 10 10 9 7 6 5 5 6 6 7 6 6 7 10 11 11 11 11 12 14 16 16 15 13 10 9 8 8 9 9 7
5 1 4 1 2 2 3 2 1 1 2 1 1 3 5 4 6 8 7 5 2 3 4 5 5 4 2 1 4 6 7 6 6 6 5 5 4 5 6 7 9 9 8 7 8 9 10 10 10 11 9 4 5 7 8 9 8 9 12 10 9 11 12 13 13 11 9 10 9 8 8 6 6 7 4 3 5 6 8 11 13 14 13 13 14 16 16 14 12 11 9 9 10 9 9 9 8
6 3 4 1 0 1 3 2 1 2 1 2 2 4 4 2 8 11 9 6 3 5 6 5 5 4 3 2 4 6 7 6 4 4 3 2 2 2 4 6 9 10 10 9 9 10 10 10 10 11 11 5 4 6 8 9 9 10 12 8 6 10 12 12 12 11 10 9 8 9 8 6 5 6 4 4 7 9 12 13 13 13 13 13 13 13 12 10 9 9 9 9 9 9 9 8 8
7 4 4 2 1 1 2 2 1 3 1 2 3 5 4 5 9 8 8 5 3 7 6 4 3 2 3 3 4 7 7 5 3 2 1 0 1 2 3 5 8 10 10 10 11 12 11 10 9 10 8 5 6 7 8 9 10 11 10 7 8 10 11 10 11 12 10 8 8 9 8 6 6 7 7 8 9 12 14 14 13 12 13 14 13 11 10 9 9 9 8 8 8 8 9 9 9
8 5 4 2 1 1 1 2 2 3 2 2 6 8 7 5 7 5 4 5 7 6 3 3 2 2 5 7 7 7 7 5 3 2 2 3 4 4 3 4 7 9 10 11 13 14 13 9 8 7 5 5 6 7 8 9 10 11 10 10 10 9 9 9 11 12 10 9 8 8 7 7 9 10 11 12 13 14 12 13 12 11 12 13 12 10 10 9 9 9 8 8 8 8 10 10 11
7 4 4 2 1 2 2 3 3 3 3 4 7 8 6 3 4 5 4 8 9 6 4 4 5 7 9 9 8 6 5 4 4 4 5 5 5 5 4 4 6 9 11 11 13 14 13 8 6 5 3 4 5 6 7 8 11 12 12 11 9 8 7 9 11 12 11 9 9 7 7 9 11 12 14 15 15 14 12 12 12 11 11 11 10 10 10 10 10 10 9 9 9 10 11 12 13
5 2 3 1 2 2 3 5 5 4 4 5 7 8 7 4 4 7 6 7 8 7 8 8 8 9 8 7 6 4 3 2 2 4 6 6 6 5 5 5 7 9 10 11 13 14 12 8 4 3 2 4 4 5 7 8 11 12 12 10 9 8 8 9 10 12 11 9 9 8 8 10 11 13 15 16 16 15 14 13 12 12 11 10 9 10 11 11 12 11 11 11 11 12 13 14 14
3 2 2 2 4 2 3 6 6 4 7 7 7 9 9 6 7 7 4 3 5 6 7 8 9 9 7 6 4 1 1 2 2 3 4 5 6 5 5 5 7 9 9 10 13 13 13 8 2 1 2 4 4 5 7 8 10 11 11 10 8 9 10 9 10 12 11 10 9 9 9 10 12 13 15 15 15 15 15 13 12 11 10 9 9 9 10 11 12 12 12 12 12 13 13 14 14
2 3 2 3 5 1 1 8 8 8 13 11 7 8 8 7 7 5 4 3 2 3 4 6 8 8 7 5 4 3 4 3 3 2 3 5 6 6 5 5 7 8 8 10 12 12 13 8 2 1 2 3 4 5 7 8 10 10 10 9 8 9 10 10 9 11 12 10 9 9 10 11 12 14 15 15 13 14 15 13 11 10 9 8 9 10 11 12 12 11 11 11 11 12 12 13 14
1 2 2 3 4 2 1 7 9 12 16 14 10 9 7 6 5 5 7 4 3 3 6 5 7 10 7 5 5 6 8 7 4 2 2 3 5 6 5 5 7 8 8 10 11 11 12 8 1 1 2 3 4 5 7 8 9 9 9 8 7 9 10 10 10 11 12 11 10 10 10 12 13 15 16 14 13 14 14 13 11 10 9 9 10 11 12 12 12 12 11 11 11 11 12 12 13
3 2 1 3 5 3 1 8 14 16 16 13 11 8 7 6 5 7 8 3 2 3 6 4 6 8 6 6 7 8 9 10 8 5 1 2 4 5 5 6 7 7 8 10 10 11 12 7 1 2 3 4 5 7 8 9 9 8 8 7 7 9 10 11 11 12 13 12 10 10 11 12 13 14 15 14 13 14 14 13 12 10 10 10 11 11 12 12 12 13 12 12 13 13 13 13 14
3 2 3 3 5 5 6 13 16 17 15 12 9 8 9 8 4 7 6 2 1 3 5 5 6 7 6 7 6 7 8 9 9 8 3 2 4 5 6 7 7 7 9 10 10 11 10 5 2 3 4 5 6 7 8 8 8 8 7 7 7 9 11 11 12 13 13 12 10 10 11 12 12 13 14 13 13 14 14 14 12 11 10 10 11 10 11 12 13 13 14 15 15 15 15 15 15
5 1 3 5 9 10 11 15 15 15 15 11 11 10 9 6 4 7 5 2 5 7 7 7 8 7 6 6 5 5 5 6 6 8 6 1 3 6 6 6 6 7 8 8 8 9 8 3 2 4 5 6 6 7 7 7 8 7 6 7 8 9 11 11 13 14 13 11 11 11 12 12 12 12 13 13 14 14 15 14 12 11 10 10 10 10 11 12 13 14 15 16 17 17 17 16 16
4 2 2 6 10 11 14 16 14 13 13 12 12 9 6 5 6 6 4 3 7 8 8 8 8 7 6 6 5 3 3 3 4 5 6 5 2 4 6 6 7 6 5 5 6 7 4 2 2 4 5 6 6 7 7 7 7 7 6 6 7 9 11 12 13 13 11 11 11 12 13 13 12 13 13 13 13 13 14 14 12 11 10 10 10 11 12 13 14 15 16 17 17 18 18 18 17
2 4 5 6 8 12 15 14 13 12 12 14 10 4 4 5 5 3 3 7 8 8 8 7 7 6 5 5 3 2 0 2 3 4 6 6 6 4 5 6 7 5 4 4 6 6 4 2 2 3 5 6 6 6 6 6 6 6 6 6 7 9 11 12 12 11 10 10 11 13 13 14 13 13 13 12 12 12 13 14 13 12 10 10 10 11 12 14 15 15 16 16 17 17 17 18 18
7 10 10 9 10 10 11 12 11 11 10 12 8 3 3 6 3 2 6 11 10 9 9 7 6 5 4 4 3 3 2 2 3 4 5 6 7 7 4 4 6 5 4 5 7 7 4 3 2 3 4 5 6 6 6 6 6 5 5 5 7 9 11 12 11 10 9 10 11 13 14 14 14 13 12 12 11 11 12 13 13 12 12 11 12 12 13 14 15 16 16 16 16 16 16 16 18
14 15 11 8 9 7 7 9 9 8 5 8 8 4 1 3 1 3 9 13 10 10 9 8 7 5 5 4 4 5 4 4 5 5 5 6 8 8 6 5 5 5 5 5 7 7 5 3 2 2 2 2 2 2 4 5 4 4 3 4 6 9 11 11 10 8 9 10 11 13 14 14 14 13 12 12 12 11 11 11 12 13 13 13 13 13 13 14 14 15 15 16 15 15 15 16 17
13 12 7 5 5 4 3 5 5 4 2 8 9 5 3 2 3 3 11 14 11 11 9 8 8 6 6 5 6 6 6 6 6 5 5 6 8 9 8 7 7 5 5 6 7 7 5 3 2 2 2 3 3 2 1 2 2 2 2 4 6 9 10 10 8 8 8 10 11 13 14 14 13 12 12 13 13 12 11 10 11 12 13 14 13 13 13 13 14 14 15 16 16 15 15 15 16
8 6 4 3 5 3 3 3 5 2 2 11 7 3 4 5 7 5 11 16 13 12 11 10 9 8 8 7 8 8 7 8 7 5 5 6 7 9 8 8 8 7 6 6 7 6 4 1 2 3 3 4 4 4 2 1 1 1 2 4 6 9 10 8 7 8 8 10 11 12 14 14 12 11 12 13 14 13 12 11 11 11 12 13 13 13 14 15 15 16 16 16 17 17 16 15 15
3 3 3 3 3 3 4 3 7 2 3 10 5 2 4 7 7 8 13 16 15 15 14 12 11 10 10 9 9 9 9 9 8 6 6 6 6 8 8 9 9 8 7 6 7 6 4 0 3 4 3 2 3 3 2 1 1 1 3 4 6 9 8 7 7 8 8 9 10 11 13 14 12 10 11 13 14 14 14 13 12 11 12 13 13 14 15 16 17 18 18 18 18 18 17 16 15
3 2 3 3 2 3 5 4 9 5 2 6 4 1 5 6 4 8 14 16 17 16 14 14 13 12 11 11 11 11 11 10 9 8 8 6 6 8 9 10 10 9 7 6 6 5 4 1 2 3 3 1 1 2 1 1 2 2 3 4 5 8 7 6 6 7 8 8 9 10 12 13 13 11 10 12 13 13 14 13 12 12 12 14 15 15 16 16 17 18 19 20 20 19 19 17 15
3 3 1 1 1 2 3 2 8 8 4 2 2 1 3 3 4 6 15 17 18 16 15 15 14 13 12 12 13 13 13 12 11 10 9 7 6 7 9 11 11 9 7 6 6 5 3 2 1 2 2 2 1 1 1 2 2 2 2 3 4 6 6 5 6 7 7 8 8 9 10 12 12 11 10 10 11 12 13 13 12 12 13 14 15 16 17 17 18 19 19 20 21 21 21 20 18
2 2 1 2 2 1 1 3 5 9 5 2 3 2 5 5 5 5 15 17 17 16 16 17 15 15 14 14 15 15 15 14 13 11 10 8 6 7 8 11 11 9 7 5 5 4 3 2 1 2 3 2 2 3 3 3 2 2 2 3 4 6 5 4 5 6 6 7 7 8 9 10 11 12 11 11 11 11 12 12 13 13 13 14 15 16 17 18 18 19 19 20 21 22 23 23 21
4 2 2 2 1 2 3 4 4 8 5 3 4 4 9 8 5 6 13 15 16 17 17 16 16 16 15 15 16 16 16 16 14 12 11 9 7 6 8 10 11 9 7 4 4 3 2 1 1 1 3 3 3 4 4 4 4 3 3 3 4 5 5 4 5 5 5 6 7 7 7 9 11 12 12 12 12 12 12 13 13 13 14 14 15 15 17 18 18 19 19 20 20 20 22 24 24
7 5 4 3 3 3 4 4 4 8 5 3 6 5 8 7 5 6 11 14 15 16 16 15 16 16 16 16 17 16 16 16 14 12 12 10 7 7 7 8 10 9 6 4 4 3 2 1 1 1 2 3 3 4 5 5 5 5 4 4 5 5 4 3 4 4 4 5 6 7 7 8 10 11 13 13 12 13 14 14 14 14 14 15 16 16 17 19 19 20 20 20 20 20 21 23 25
6 5 3 4 3 4 4 3 3 7 5 3 6 4 7 7 5 5 8 11 12 14 15 17 19 18 18 17 17 16 16 15 14 12 12 11 9 8 7 7 8 8 6 4 4 3 2 1 1 1 1 2 3 4 5 6 6 5 5 5 5 5 4 4 3 4 4 5 6 7 7 7 9 11 13 13 13 13 13 14 14 14 14 15 16 17 17 18 19 20 21 21 21 21 22 24 26
4 5 3 2 3 4 4 2 4 7 3 3 3 3 8 8 5 4 6 7 10 16 16 17 19 19 19 18 18 17 15 15 14 12 12 12 11 10 8 6 7 8 7 5 4 3 2 1 1 1 2 2 3 4 4 5 6 5 6 6 6 6 6 4 3 3 4 6 7 7 8 8 8 10 12 13 14 13 13 13 14 15 15 15 15 16 16 17 18 20 21 22 21 21 22 24 27
4 3 3 1 3 3 4 2 3 6 3 3 2 4 7 7 5 5 8 10 12 17 18 18 18 17 18 19 18 17 16 15 15 13 13 14 13 11 9 7 7 7 6 6 4 2 2 1 2 2 2 3 2 3 4 5 5 6 7 7 8 7 7 6 4 3 4 6 7 7 8 8 9 10 12 13 14 13 12 13 14 14 15 16 16 17 17 17 18 19 21 22 21 21 21 22 25
3 3 4 2 3 2 1 2 1 4 2 1 2 2 5 5 4 4 9 14 13 14 17 18 18 18 19 18 18 18 18 17 16 15 14 14 14 13 10 7 7 7 5 6 5 3 1 2 2 2 2 3 2 2 3 5 6 7 8 8 8 8 7 6 5 4 4 5 6 7 7 8 9 10 11 13 14 13 13 13 13 13 14 15 16 17 18 18 18 18 19 20 21 21 22 21 22
1 3 5 3 3 4 3 2 3 2 2 2 4 3 5 4 3 5 5 8 10 12 13 16 18 20 19 18 18 19 19 19 18 17 15 15 13 12 9 7 7 6 5 6 6 4 2 2 2 2 3 3 2 1 2 5 6 7 8 8 9 9 8 7 6 6 5 5 6 7 7 8 9 10 11 13 14 14 13 13 13 13 13 14 15 16 17 18 17 17 18 18 19 21 21 21 21
3 4 7 6 5 5 5 6 5 4 4 2 4 2 5 4 3 6 3 2 6 8 10 15 20 20 18 19 19 19 19 19 19 18 16 15 13 11 10 9 7 5 3 5 6 5 2 2 2 2 3 3 2 2 3 4 5 7 8 8 8 8 8 7 5 5 5 5 6 7 8 9 9 10 11 13 14 14 13 13 13 12 12 12 14 15 16 17 17 17 18 17 18 19 19 20 20
2 3 6 5 6 8 8 7 4 2 2 2 3 4 3 5 4 6 4 3 6 5 6 13 19 20 20 21 20 19 19 19 19 18 16 15 14 12 10 8 6 4 3 3 5 5 3 2 2 2 3 3 2 2 3 4 4 6 7 7 7 7 7 6 5 5 6 6 7 7 8 8 9 10 12 14 15 14 14 14 13 12 12 12 13 15 15 15 16 18 17 16 17 17 18 19 20
2 3 5 6 7 8 8 6 4 2 2 2 4 4 1 4 5 5 3 3 6 6 7 10 15 20 22 23 22 20 20 18 18 18 16 15 14 13 10 7 5 4 3 3 4 5 5 3 2 2 3 3 2 2 3 3 4 5 5 6 6 6 6 6 6 6 7 7 8 7 8 9 10 11 12 14 15 15 15 14 12 11 11 12 13 14 15 14 15 17 16 15 16 17 17 18 19
3 2 6 6 6 6 5 6 4 1 2 2 4 2 1 4 5 4 2 2 6 7 8 8 12 19 22 23 23 21 20 18 18 17 16 14 12 11 9 7 6 6 5 4 4 5 5 4 3 3 3 3 2 2 3 3 3 4 4 5 5 6 6 6 7 7 8 9 8 8 8 9 11 12 13 14 14 15 16 13 11 10 11 12 13 14 15 15 16 17 16 15 16 16 16 17 18
2 4 8 7 6 6 4 5 4 3 3 3 5 1 1 4 5 3 3 1 5 7 7 6 10 16 20 23 23 22 20 19 18 17 15 13 11 9 9 9 9 8 7 5 5 5 5 5 5 4 4 3 3 3 3 3 3 3 3 4 5 6 6 6 7 8 9 9 9 9 9 10 11 12 13 13 14 15 14 11 9 9 10 12 13 14 15 17 17 16 16 16 16 15 15 16 17
6 4 7 6 6 5 4 3 4 4 3 5 6 1 2 2 5 3 1 3 5 4 5 6 7 11 16 20 22 22 21 19 18 17 16 14 13 11 11 11 11 10 9 8 6 5 5 5 5 5 5 3 3 4 4 3 3 3 3 4 5 5 6 7 7 8 8 9 10 10 10 11 12 13 12 12 13 14 12 9 8 9 11 13 14 14 15 17 17 16 16 16 15 15 15 15 16
6 4 5 4 4 4 4 4 4 4 2 5 5 2 2 1 4 3 3 5 5 4 4 5 6 10 13 16 19 20 20 20 18 17 16 16 15 15 14 14 13 12 11 8 6 6 5 5 5 5 5 4 4 4 4 4 3 3 3 4 5 5 7 8 8 8 8 8 9 10 11 12 13 13 11 11 11 10 9 8 9 10 11 13 15 15 16 17 17 16 15 15 14 14 14 14 16
5 4 5 4 3 3 2 3 2 0 3 3 2 1 1 3 6 5 5 6 5 6 8 8 8 11 11 12 15 18 19 20 19 17 17 16 15 15 15 15 14 13 11 9 8 6 5 5 5 5 4 4 4 4 4 4 4 3 3 4 4 5 7 8 8 8 9 9 10 11 12 12 13 11 8 7 7 8 8 8 10 12 13 14 15 15 15 17 18 16 15 15 15 14 14 14 16
4 4 4 4 2 3 1 3 2 2 3 2 3 2 1 3 5 5 6 6 5 6 8 8 9 9 9 10 12 15 18 19 18 17 17 17 15 15 14 14 14 13 11 9 9 8 6 5 5 5 4 3 3 4 4 4 4 3 3 3 4 5 6 7 7 8 9 9 10 10 11 11 10 8 5 6 7 8 9 11 12 13 14 14 15 15 16 17 17 15 15 15 15 14 13 14 16
3 4 5 4 4 3 1 3 2 2 2 3 3 1 2 2 3 5 6 7 7 5 4 5 5 7 8 9 11 13 16 17 17 17 17 17 15 14 14 13 13 13 12 11 10 9 7 6 5 5 4 3 3 3 4 4 3 3 3 3 4 4 5 6 6 6 7 8 9 9 10 9 8 6 6 7 7 9 11 12 14 15 15 15 15 16 18 18 16 14 15 16 14 13 12 13 16
2 3 4 1 3 4 2 2 4 2 1 2 2 2 3 3 4 5 5 5 4 1 2 4 4 6 7 9 10 12 14 15 16 16 17 17 16 15 14 13 13 13 13 12 11 9 7 6 6 6 5 4 3 3 4 4 3 3 3 3 4 4 4 5 5 5 6 6 7 8 8 8 7 6 6 8 9 10 12 14 15 16 17 17 17 18 18 16 14 13 14 15 13 12 12 13 15
2 2 2 4 3 7 5 1 1 3 2 2 1 2 5 3 2 5 5 1 2 2 0 2 3 5 7 9 10 11 13 14 14 15 16 17 17 16 15 14 13 13 13 12 11 9 7 6 6 6 6 5 4 4 4 4 4 3 3 3 3 3 4 4 4 4 5 6 6 7 7 8 8 7 8 9 10 11 13 14 16 17 18 19 18 16 14 13 12 13 14 14 12 12 12 14 16
4 2 5 3 3 5 4 2 3 4 1 3 2 2 5 2 0 4 4 1 5 4 2 3 3 5 7 9 10 10 12 13 14 15 16 17 17 16 16 15 14 13 13 12 10 9 8 8 7 7 7 6 5 5 5 5 5 4 3 3 3 3 3 4 4 4 5 5 6 6 6 7 8 8 9 10 12 13 14 15 16 18 19 19 17 14 12 11 12 13 14 13 12 13 13 15 17
4 4 5 4 3 1 2 2 1 1 0 3 4 3 3 3 3 4 2 5 7 5 3 3 5 8 8 9 10 11 12 13 14 15 16 16 17 17 16 15 14 13 13 12 12 11 10 10 9 8 7 7 6 5 5 5 5 4 3 3 3 3 3 4 4 4 4 5 5 6 6 7 8 8 9 11 12 13 14 15 16 17 19 18 15 13 11 11 12 13 14 13 12 13 14 15 17
4 3 3 3 3 3 2 2 2 2 1 2 3 4 3 5 5 4 6 8 7 6 5 5 8 12 11 10 11 12 13 13 13 14 15 15 16 16 16 16 14 13 12 12 13 13 12 11 10 9 8 8 6 5 5 5 5 3 3 3 3 3 3 4 5 5 5 5 6 6 6 7 8 9 9 10 11 12 13 14 15 16 18 17 14 12 11 11 12 14 14 13 12 13 14 15 17
2 2 2 0 2 2 2 1 1 3 3 2 1 2 5 6 4 6 8 8 7 7 6 6 10 14 13 12 12 13 13 12 12 12 12 14 15 16 16 16 15 14 12 12 12 13 12 12 11 10 9 8 7 6 5 5 5 3 3 3 3 3 3 4 6 6 7 6 7 7 7 8 8 9 9 9 10 11 12 14 15 16 18 17 15 13 12 11 12 13 14 13 13 13 14 15 16
6 5 5 4 3 4 3 1 1 2 3 4 3 1 6 6 4 6 7 5 6 7 7 7 10 13 12 12 12 13 13 11 11 11 11 12 13 15 15 16 16 15 14 13 12 12 12 12 11 10 10 8 7 6 6 5 5 4 4 4 3 3 3 4 5 7 7 7 7 7 7 7 8 9 9 9 9 11 12 14 15 17 18 17 15 13 12 12 12 13 13 14 14 14 15 17 17
Wind_Direction
179 194 246 33 350 17 1 81 81 352 67 50 291 218 268 231 115 44 358 353 52 56 35 337 274 230 211 204 145 125 60 68 149 131 158 144 135 142 137 129 114 98 89 84 84 59 47 36 24 17 17 18 17 19 351 330 323 321 322 324 326 329 334 343 351 359 3 7 11 21 30 39 44 48 56 59 59 51 46 42 34 28 17 8 6 8 1 359 357 4 10 4 355 348 340 329 320
188 214 22 87 352 349 214 63 72 340 40 340 282 183 262 341 54 16 323 309 338 310 331 327 162 163 186 153 108 126 38 52 108 105 117 134 138 138 130 113 97 86 76 71 59 38 34 25 22 17 15 24 20 354 323 324 322 321 324 327 332 338 348 356 2 7 10 19 25 32 41 49 55 62 68 66 59 49 45 45 42 40 40 35 34 38 32 24 20 12 6 2 357 352 346 341 335
212 224 35 165 307 48 144 47 79 67 49 283 275 254 290 20 26 273 287 310 342 330 311 173 140 112 147 123 73 151 127 92 116 119 123 141 144 133 117 99 92 83 81 76 59 43 43 35 23 20 20 19 359 326 321 322 321 325 331 336 344 353 5 11 13 18 24 33 40 47 54 58 60 60 58 53 48 44 46 45 42 41 43 38 33 33 22 10 1 357 355 352 354 350 342 340 336
273 262 285 238 263 71 85 47 114 114 153 242 271 296 7 67 252 263 6 6 348 342 304 163 132 46 98 90 66 88 103 101 118 138 135 139 136 118 102 93 89 80 84 79 68 56 48 39 32 29 19 354 332 320 320 323 327 335 341 348 2 11 19 22 24 30 35 39 46 53 59 61 60 56 50 46 42 37 38 42 44 39 33 29 22 16 8 358 350 347 344 344 348 343 339 340 333
276 271 259 244 280 121 95 75 109 110 222 204 215 298 319 238 260 118 50 37 18 29 145 147 74 56 87 69 67 97 115 106 111 130 123 113 109 102 99 90 81 79 81 78 67 55 44 33 33 22 357 335 326 325 328 333 339 346 353 4 21 27 28 28 31 32 33 35 42 51 59 65 63 57 51 46 41 36 31 31 40 39 30 20 12 10 5 358 351 343 340 346 345 335 338 341 333
261 253 227 200 101 138 115 99 177 193 240 178 156 282 281 272 13 125 102 61 47 74 136 118 113 120 89 54 63 119 156 118 103 104 101 100 94 95 94 76 82 91 83 72 52 43 40 32 20 355 340 334 333 337 343 347 352 360 10 26 34 32 29 28 27 24 28 24 23 38 48 67 65 53 48 42 37 33 30 26 27 27 25 14 2 4 4 358 356 351 350 353 346 340 342 342 334
239 211 176 148 89 64 103 158 213 210 256 166 142 249 267 256 107 124 126 75 51 63 110 107 127 123 77 37 49 144 135 108 100 94 100 106 96 90 84 76 83 89 68 47 42 38 35 18 357 340 336 340 346 350 355 1 6 14 25 41 38 27 28 29 26 25 29 20 13 20 24 48 52 33 27 28 26 21 19 16 9 6 6 359 345 349 356 350 351 350 345 346 349 349 346 346 341
240 231 186 134 55 29 98 189 238 192 222 233 164 216 250 197 175 140 83 82 64 45 97 113 112 100 49 31 33 97 105 100 103 99 99 97 86 78 74 75 73 70 48 36 35 28 19 350 343 344 346 352 0 7 13 15 20 26 32 41 35 23 20 27 33 28 30 21 16 10 9 34 43 20 9 8 12 10 5 1 357 354 350 347 343 348 352 335 330 329 328 329 335 341 336 345 345
246 244 240 106 66 52 87 241 258 244 242 269 219 259 40 139 190 153 73 76 108 52 59 153 88 100 78 54 57 89 96 96 97 89 85 82 77 69 59 57 50 48 40 27 2 0 12 350 345 354 360 9 20 28 28 27 29 33 37 38 32 19 7 18 34 28 27 19 10 8 7 28 36 12 1 2 12 12 2 3 1 353 354 359 355 351 341 319 319 322 323 326 331 337 330 340 344
242 229 191 90 75 73 308 284 250 283 239 228 253 10 22 141 164 126 101 102 122 73 76 98 86 109 103 63 67 92 97 96 94 90 86 80 73 63 53 45 36 37 32 3 346 346 353 344 339 355 12 31 38 38 37 35 35 36 37 36 29 14 359 10 29 27 23 12 360 10 4 10 14 355 1 17 24 15 349 350 350 347 355 359 347 328 316 314 321 326 330 335 343 348 335 337 344
233 231 144 91 86 169 246 261 260 252 256 262 29 52 71 161 134 99 112 112 109 112 108 90 84 108 98 45 85 103 109 104 101 101 92 83 73 63 52 45 37 33 25 353 345 334 332 331 331 355 24 49 46 38 36 31 31 32 23 25 22 6 0 9 22 27 19 5 351 359 345 341 3 359 18 32 21 355 332 330 329 329 323 319 321 316 316 323 330 334 340 344 352 354 342 339 349
212 341 97 100 169 189 204 195 243 243 309 355 28 91 160 164 138 115 128 116 102 126 137 114 123 121 81 14 106 112 116 113 111 104 95 86 76 63 48 39 33 27 23 3 349 338 334 332 335 359 19 54 52 33 26 20 25 19 5 15 9 358 8 7 13 26 22 12 358 355 349 348 3 1 25 38 4 328 321 322 319 319 316 310 309 312 319 328 334 339 348 350 352 352 338 337 348
203 127 104 124 192 162 162 151 204 165 356 260 190 154 163 175 145 138 125 103 93 124 117 107 128 133 93 87 115 125 131 128 121 109 102 86 71 52 35 24 20 15 17 13 4 352 343 341 341 0 13 44 60 29 14 12 24 12 2 10 358 2 12 1 6 20 23 26 12 0 359 359 3 5 21 19 342 318 310 316 316 316 319 318 312 315 323 332 340 348 360 356 354 350 333 335 345
204 161 124 142 48 131 145 125 193 126 319 243 155 156 169 162 139 137 120 86 48 114 119 102 112 122 116 124 124 140 145 150 144 123 118 84 55 32 16 4 3 1 7 10 9 359 350 348 346 6 18 31 41 21 10 12 21 14 9 11 6 11 4 355 5 15 26 29 5 355 358 357 359 359 346 311 313 313 313 322 329 330 334 335 331 332 338 351 359 0 2 356 351 343 333 337 336
197 151 103 108 28 325 159 138 177 132 197 226 152 153 122 120 136 133 118 100 95 118 120 112 108 117 147 149 136 153 157 165 172 153 157 6 307 327 340 346 349 349 359 2 4 2 353 346 350 8 14 20 27 18 15 17 18 12 5 357 3 3 352 359 10 15 24 14 353 354 353 345 345 339 331 326 326 326 327 338 349 350 348 353 358 1 7 12 6 358 352 343 336 328 325 327 327
181 141 72 90 109 275 205 147 126 114 221 209 158 147 101 105 140 125 111 125 136 130 127 127 93 98 136 124 118 153 167 177 195 221 243 263 278 282 298 331 344 344 349 353 358 359 356 346 349 360 351 5 22 18 15 16 12 4 357 351 357 355 354 10 15 15 15 2 357 354 344 340 341 335 337 342 346 348 350 358 3 4 3 8 15 16 12 5 357 350 342 331 326 321 318 321 327
159 120 64 90 179 220 199 165 161 154 199 181 165 156 110 94 127 109 117 131 130 120 108 110 104 113 121 117 122 147 168 197 232 241 248 256 262 261 272 307 330 333 338 347 350 353 360 355 351 2 351 6 12 10 9 7 3 358 358 0 6 8 8 14 15 15 8 2 3 352 341 341 340 339 345 351 357 3 8 13 16 19 19 22 22 13 4 357 351 346 337 328 324 321 318 319 325
138 93 92 163 199 192 198 177 174 153 149 170 177 161 131 122 124 120 117 111 111 101 93 102 112 116 118 120 127 141 154 186 262 262 260 264 264 255 255 284 310 319 331 342 340 347 6 5 1 31 18 12 7 2 5 4 1 357 358 4 14 17 13 14 15 14 9 8 7 354 344 343 342 344 353 360 5 11 16 21 23 23 24 25 20 8 1 358 353 348 340 332 327 325 322 321 326
118 89 101 221 200 201 219 164 161 153 144 153 160 150 136 136 138 135 126 83 98 97 86 107 118 113 120 121 111 108 233 258 286 293 279 272 267 258 256 282 302 312 326 336 333 344 4 5 357 40 9 4 4 2 4 3 357 354 356 1 11 14 12 13 12 12 12 11 7 356 348 346 344 348 359 5 9 15 19 23 25 26 27 23 20 11 6 1 355 350 344 336 332 329 327 328 331
112 97 101 240 202 189 207 163 165 162 147 137 135 140 131 134 140 142 136 90 61 119 125 128 132 131 132 120 85 36 2 325 294 295 286 263 251 247 257 282 292 306 320 325 330 341 355 355 342 5 345 347 353 351 353 351 348 347 352 358 5 7 8 10 8 10 14 13 5 355 348 346 346 352 2 6 10 16 20 23 26 30 28 25 22 14 7 1 357 353 347 343 341 342 342 340 338
100 98 153 205 166 107 172 169 156 147 142 133 126 126 121 134 148 151 135 100 339 210 174 163 160 158 143 119 87 54 43 36 16 344 281 248 236 233 240 259 277 298 309 316 326 338 345 343 298 230 282 305 323 326 334 340 341 341 346 355 0 0 3 5 7 9 14 14 3 353 347 347 350 355 2 8 12 16 20 23 28 33 31 28 23 15 11 8 9 7 4 4 5 4 1 354 346
75 25 121 149 145 112 130 147 139 138 135 127 123 123 133 139 139 155 141 118 283 216 183 171 160 158 135 112 92 67 57 47 39 32 336 221 214 217 228 248 273 290 300 312 322 333 337 331 223 212 259 282 295 308 326 335 337 338 343 354 353 355 0 4 9 10 13 16 6 355 349 350 353 355 4 12 15 17 21 24 30 35 32 29 25 20 17 16 18 17 17 18 16 12 8 2 354
90 27 52 90 131 128 135 136 136 141 134 125 131 132 139 130 123 171 158 94 115 140 155 145 136 140 120 107 92 73 58 48 46 41 27 230 219 220 232 250 270 286 298 312 320 331 331 318 215 219 253 278 291 311 328 330 332 337 343 346 345 354 2 5 11 12 13 15 9 1 357 357 356 360 9 15 17 19 21 26 30 32 30 28 26 24 20 18 17 15 14 13 12 10 8 5 0
101 88 31 82 114 125 140 140 139 145 136 132 140 137 144 137 134 181 186 76 107 117 128 130 129 133 117 108 99 83 56 43 45 44 44 18 242 234 244 254 270 290 302 314 321 329 324 299 234 233 254 282 297 320 332 329 330 339 339 336 344 357 2 5 10 10 12 15 13 10 7 6 6 10 15 17 18 20 22 25 26 27 27 26 23 21 16 14 13 10 8 5 3 2 3 5 4
79 100 90 95 107 128 142 139 140 139 131 138 142 139 159 160 151 173 198 141 126 125 130 131 132 131 122 119 109 93 59 36 32 38 43 33 348 256 255 260 272 287 307 326 330 332 327 302 261 249 262 285 302 318 327 328 329 334 334 332 349 0 359 2 7 7 12 17 15 15 13 13 15 16 16 17 19 22 24 23 22 21 21 21 19 16 12 9 6 3 0 357 354 354 355 358 0
97 105 108 103 107 129 139 136 137 134 136 147 138 120 153 154 148 162 197 164 148 143 144 146 144 142 137 139 140 138 287 0 10 15 22 23 14 331 266 260 266 275 311 341 345 347 353 332 286 268 276 287 298 309 317 317 316 323 325 333 352 1 359 359 4 8 13 15 14 16 16 18 21 19 17 16 18 23 24 22 20 18 14 13 12 10 5 358 355 353 352 352 349 348 349 350 352
113 97 87 96 114 126 139 137 136 134 141 155 134 81 152 148 152 240 192 169 163 162 161 167 164 162 168 174 193 211 252 300 335 353 3 4 5 352 314 285 276 281 316 340 350 350 349 336 323 300 291 291 296 302 306 299 303 314 316 332 351 358 358 357 4 13 12 11 16 18 18 22 24 23 20 17 16 18 20 20 18 15 11 8 4 1 357 353 354 355 354 354 350 348 348 348 347
111 104 80 71 100 105 132 136 143 136 132 166 134 85 101 141 221 243 184 173 174 176 174 182 185 189 197 212 228 239 252 262 294 325 351 351 355 352 342 330 312 311 324 339 349 342 328 337 5 351 315 318 315 307 288 284 298 314 312 333 350 356 357 356 5 18 13 13 22 23 23 26 28 27 24 18 15 12 12 14 14 13 12 9 5 1 357 356 358 360 0 359 355 349 346 346 347
106 104 78 34 54 65 139 134 160 150 120 172 137 66 330 252 245 213 177 179 180 185 193 197 201 210 213 232 244 249 258 255 273 304 332 337 347 351 349 342 332 329 333 340 343 331 321 349 59 98 94 77 63 64 279 286 318 325 329 338 350 359 359 356 7 25 20 18 26 28 28 30 31 31 27 22 18 15 13 14 13 14 13 10 7 3 358 355 353 353 355 357 356 353 347 346 349
95 78 74 56 25 359 208 155 173 171 150 172 146 19 295 262 242 203 177 184 183 193 207 211 215 223 226 237 248 257 260 259 271 291 304 316 337 346 349 342 332 327 330 335 334 326 325 19 127 141 125 105 79 69 74 43 14 334 345 339 352 3 1 355 7 31 29 22 27 30 31 32 32 32 29 25 22 22 22 22 20 17 14 11 7 3 1 1 358 356 355 355 356 356 354 351 354
77 34 41 71 47 298 255 165 160 148 183 176 127 31 262 279 256 205 187 190 191 199 210 217 223 228 236 243 249 259 259 263 273 267 272 295 324 338 347 344 333 326 326 330 330 326 325 291 165 174 164 130 90 74 76 41 343 313 340 339 355 5 3 356 9 33 32 23 27 31 31 31 32 30 28 27 24 23 24 25 24 22 18 14 10 7 5 6 7 7 6 3 360 357 356 355 357
38 64 347 355 75 294 289 180 165 155 183 182 114 74 258 290 275 199 190 196 200 207 216 222 230 234 242 250 252 261 263 264 266 253 257 278 306 327 346 347 336 329 326 330 330 323 313 275 191 199 210 201 105 99 153 290 315 312 330 337 357 5 360 355 8 29 34 25 25 30 30 28 27 25 25 26 25 23 21 23 24 24 21 17 15 12 9 9 9 10 11 10 7 4 360 357 358
11 93 252 274 111 305 305 212 183 158 126 191 172 215 262 302 320 197 190 199 205 215 228 229 237 242 246 256 258 262 265 265 264 254 254 269 296 318 340 347 339 332 328 333 334 322 311 297 235 230 238 252 229 197 226 251 288 312 329 335 352 357 352 352 5 19 26 25 23 24 26 24 21 20 20 22 24 21 18 18 18 19 18 16 14 12 10 10 8 6 7 9 10 7 5 1 359
298 56 95 221 185 193 272 283 205 156 131 195 197 244 251 268 318 204 193 202 206 217 235 238 243 247 251 259 263 267 268 269 269 261 259 268 289 311 333 344 340 335 332 334 337 324 313 316 285 254 254 257 234 219 227 238 252 281 310 322 336 347 344 347 4 6 6 15 22 20 19 18 15 15 17 17 19 19 15 12 12 11 10 10 8 7 7 6 6 5 3 6 9 7 6 6 3
201 171 153 231 210 191 223 262 203 157 147 177 173 242 257 265 292 223 203 204 210 222 235 245 252 254 257 262 265 271 272 273 273 266 261 263 279 302 323 340 342 338 335 332 336 324 313 332 318 270 258 256 231 214 220 232 244 263 285 299 318 335 335 340 3 358 345 1 16 17 12 7 5 9 14 15 14 13 11 7 6 6 5 4 2 1 3 4 5 5 4 4 7 7 5 6 6
174 173 150 161 191 238 228 237 207 158 140 189 184 223 264 273 275 236 214 208 216 230 240 251 259 261 263 265 267 270 273 275 275 264 254 257 269 285 305 331 341 344 344 331 329 319 296 319 332 305 265 261 244 219 216 227 239 256 269 283 305 319 323 333 2 358 334 339 357 5 4 359 357 1 7 10 9 8 7 4 2 2 0 360 0 2 6 8 5 5 5 3 3 5 5 6 6
139 133 123 168 196 261 246 248 217 148 130 230 203 232 276 275 273 254 223 214 223 234 242 250 254 259 263 265 268 270 274 275 273 262 249 250 256 266 285 315 333 345 352 335 320 306 278 277 326 332 305 285 269 244 223 222 234 251 262 275 296 307 313 325 356 5 336 320 331 349 355 353 352 354 357 0 1 1 1 360 359 0 360 358 0 4 7 8 6 4 5 5 2 2 3 4 4
101 122 128 207 215 243 251 237 190 155 141 255 195 221 269 269 269 253 201 201 227 229 232 243 248 254 258 262 266 268 273 273 268 260 245 244 249 255 270 293 318 336 349 345 323 297 278 282 313 317 309 295 279 265 246 226 230 243 257 274 293 301 307 310 321 350 336 315 314 329 342 347 348 348 350 351 353 354 354 353 353 356 360 360 1 3 4 5 5 4 3 3 5 4 4 3 1
84 110 120 259 240 229 285 316 161 157 160 282 205 202 261 271 258 230 193 199 229 230 231 242 246 251 256 258 263 266 269 269 265 257 245 243 247 252 262 278 301 319 342 356 347 305 273 286 304 298 297 295 280 265 253 238 235 241 254 273 289 295 300 302 298 310 324 316 313 320 331 340 342 342 344 345 347 350 350 349 348 350 355 358 359 1 1 2 3 4 2 359 1 4 7 7 3
90 115 130 247 248 168 280 314 121 141 134 147 146 202 279 286 272 250 212 210 229 239 240 248 249 252 259 262 267 268 267 266 264 258 247 242 246 252 259 269 285 302 331 357 1 344 286 291 296 288 291 290 284 258 241 238 240 246 256 269 280 283 288 295 288 289 313 318 314 317 322 327 333 337 339 341 343 347 348 346 344 344 349 353 355 356 357 359 1 1 1 358 356 360 5 9 7
264 175 165 208 217 171 177 152 102 57 8 87 94 12 310 308 295 276 245 219 232 242 241 248 251 253 260 264 267 268 267 267 265 260 251 246 249 253 256 260 270 290 325 350 358 356 323 291 283 284 294 286 280 267 236 236 239 246 256 264 270 276 285 292 286 286 303 310 301 305 310 317 325 330 335 339 341 343 345 343 340 340 343 347 350 352 351 354 357 357 358 356 353 355 1 5 7
288 223 196 190 168 143 133 125 92 42 344 326 83 39 296 317 300 263 289 265 242 242 233 240 247 249 252 255 260 264 266 266 264 261 255 251 251 249 247 249 258 281 321 342 349 352 334 286 270 280 288 283 279 270 244 239 239 245 255 262 266 275 286 292 287 276 280 289 291 295 300 308 317 322 329 337 339 341 342 341 338 337 340 343 346 348 348 349 352 353 353 351 349 351 355 359 2
319 231 184 165 135 129 140 137 102 98 242 301 82 128 259 319 307 270 297 281 263 268 245 244 246 246 247 249 255 260 262 263 260 257 253 247 245 244 242 244 251 269 297 323 339 345 338 290 270 273 276 283 284 266 249 241 242 247 254 261 265 273 281 284 276 261 263 277 286 292 294 301 312 316 323 331 336 338 339 339 337 337 340 342 344 347 347 346 348 349 348 345 346 348 350 354 358
267 244 133 118 122 139 155 136 104 148 194 346 37 107 199 300 278 280 310 281 287 291 265 255 245 242 246 248 251 255 258 260 257 254 251 245 242 242 241 238 239 246 261 297 325 336 337 316 289 280 271 279 282 265 251 238 240 247 252 260 267 272 276 272 260 254 261 270 278 288 294 301 308 312 318 325 330 333 334 335 335 335 337 339 341 346 348 345 344 346 344 340 343 347 346 350 356
265 238 98 103 115 129 134 111 99 46 78 330 323 66 124 275 278 309 345 272 292 287 266 260 245 239 242 246 249 251 254 254 253 254 253 248 243 241 239 230 229 237 247 275 302 318 328 321 300 289 275 276 287 280 265 249 243 247 255 263 271 275 274 267 259 258 264 271 277 285 293 301 305 307 313 318 322 325 327 328 329 330 331 333 337 343 347 347 344 342 341 339 342 347 346 346 352
190 125 86 79 70 82 84 90 105 48 50 259 278 22 123 277 286 324 7 267 265 271 268 267 253 242 240 244 246 247 248 246 247 250 250 247 242 236 234 228 226 235 242 256 277 300 319 319 305 292 282 281 290 289 280 268 254 254 265 269 274 277 276 273 269 265 267 274 278 281 289 297 301 304 307 310 313 316 318 320 320 324 326 328 333 339 342 345 345 340 337 339 341 346 347 346 350
139 94 68 61 35 47 56 51 89 63 359 264 262 261 116 302 286 261 211 234 229 244 279 285 270 251 242 242 243 243 243 241 241 243 242 240 236 231 229 228 227 231 238 245 259 284 303 313 309 294 286 289 291 289 287 276 262 262 272 275 279 283 284 285 283 276 273 275 278 281 289 296 302 307 306 304 307 310 313 315 315 319 323 326 332 336 338 342 344 340 336 338 340 345 348 347 348
104 71 71 70 9 13 28 0 37 70 287 265 269 287 106 144 273 256 245 259 235 214 245 270 269 256 249 244 242 243 242 239 237 236 235 232 230 230 228 226 226 229 235 240 250 269 284 298 308 301 291 288 287 285 286 284 275 271 274 280 285 289 290 293 294 289 283 280 281 286 292 299 306 309 306 305 306 307 310 313 317 322 323 326 331 333 336 341 343 341 340 340 342 345 348 348 348
76 86 84 70 15 11 22 329 351 151 245 259 270 296 102 221 249 260 270 266 247 228 229 244 259 256 254 249 243 242 241 239 236 232 230 227 226 230 230 228 225 225 230 236 243 256 269 283 300 311 304 286 282 285 284 287 283 276 276 282 286 289 291 293 292 288 283 282 285 291 297 302 307 309 309 309 307 305 310 316 323 329 330 329 331 331 334 339 340 341 343 343 342 343 346 348 350
123 132 115 101 90 59 338 276 311 291 259 273 269 254 302 291 268 232 238 257 267 256 241 247 261 259 261 261 249 243 241 240 237 231 227 223 223 228 231 230 227 225 226 231 238 247 256 269 286 307 311 289 278 283 284 284 283 279 279 283 286 290 293 292 289 285 283 286 290 297 303 307 312 315 316 315 312 311 316 323 328 332 334 331 328 327 330 334 337 339 343 343 341 342 344 345 349
157 154 124 131 148 133 226 234 193 246 265 282 294 270 168 261 262 211 229 274 292 281 233 229 247 252 258 262 252 242 239 239 236 230 225 222 221 225 229 230 228 226 226 228 235 241 247 259 274 292 308 301 281 278 283 285 280 276 276 281 287 293 297 297 295 293 292 293 298 305 313 318 320 317 316 318 317 318 322 328 332 334 335 330 325 324 325 329 334 337 341 343 341 341 341 341 347
193 141 104 183 188 138 113 184 175 187 259 279 280 241 209 223 266 277 285 284 280 263 192 199 218 233 240 246 246 239 236 238 236 231 225 221 221 223 227 229 228 226 226 228 232 237 244 254 270 287 304 310 297 277 280 287 286 280 277 283 288 297 304 304 303 304 301 302 306 314 322 326 323 312 315 321 320 321 325 330 333 333 333 330 325 324 324 327 332 336 341 343 340 338 338 339 345
150 128 183 230 166 119 111 162 6 63 77 281 277 273 295 323 310 312 342 313 268 349 343 223 224 230 235 237 236 234 233 235 236 233 227 222 221 223 225 227 227 226 225 226 229 235 242 251 267 283 298 311 311 286 277 283 287 285 279 283 292 306 317 314 311 312 309 311 313 318 327 329 323 314 314 319 321 323 326 328 329 329 330 331 331 330 329 330 331 335 342 345 340 338 337 338 342
122 195 206 189 110 100 105 109 10 36 86 283 323 293 299 359 47 318 354 304 270 294 293 271 248 225 235 236 228 228 231 233 236 236 231 226 224 224 225 226 227 228 228 230 233 238 242 249 260 275 289 303 308 288 274 274 277 276 271 277 293 313 329 326 318 310 308 314 315 318 328 330 326 320 316 319 322 323 325 326 327 327 330 335 339 342 340 334 331 335 343 347 341 338 337 336 338
115 173 168 114 119 155 81 104 105 57 295 293 318 313 277 199 221 288 283 221 241 259 258 260 236 221 228 232 225 227 231 233 235 235 233 230 226 226 227 226 227 228 230 232 235 239 243 250 257 266 278 289 297 288 273 271 270 262 257 266 288 311 337 336 325 313 304 311 318 320 326 327 325 322 321 324 325 325 326 328 328 329 334 340 345 347 344 336 332 334 342 346 341 339 337 334 338
50 111 131 90 123 160 148 140 161 141 142 270 311 335 289 227 216 215 223 223 220 228 235 231 225 221 224 226 225 227 231 233 233 232 233 231 227 228 227 227 229 229 232 234 236 239 245 252 257 261 268 279 291 291 278 271 266 253 248 259 277 305 334 336 328 320 312 314 319 318 318 319 321 322 323 327 330 332 334 334 334 336 341 345 347 346 343 336 333 335 339 344 343 340 338 335 338
102 116 178 203 79 123 142 106 107 123 138 180 290 326 273 251 207 189 219 228 209 208 218 227 227 222 224 229 228 228 230 232 232 230 232 232 228 228 228 228 229 229 234 237 239 243 246 251 256 258 264 273 286 292 286 276 267 260 264 265 275 300 325 332 329 325 318 316 315 310 306 308 313 318 322 328 333 337 341 340 340 343 346 348 347 346 343 336 334 336 339 343 345 343 340 338 338
161 166 194 181 133 123 115 339 290 105 118 163 154 270 271 259 205 199 221 222 212 214 213 231 238 227 225 233 231 229 230 232 233 230 232 233 229 227 227 226 226 226 231 235 239 244 247 250 254 257 262 270 284 295 292 278 268 269 276 272 277 295 312 325 330 328 321 316 314 308 299 299 308 313 318 327 333 337 342 343 343 346 348 348 346 345 343 338 337 338 340 343 345 344 340 338 337